Time,TemperatureF,DewpointF,PressureIn,WindDirection,WindDirectionDegrees,WindSpeedMPH,WindSpeedGustMPH,Humidity,HourlyPrecipIn,Conditions,Clouds,dailyrainin,SolarRadiationWatts/m^2,SoftwareType,DateUTC
2013-08-05 00:00:00,67.0,58.1,29.98,NNE,22,0.0,0.0,73,0.00,,---,0.00,0.00,VWS V14.00,2013-08-05 05:00:00,
2013-08-05 00:01:00,67.0,58.1,29.98,NNE,22,0.0,0.0,73,0.00,,---,0.00,0.00,VWS V14.00,2013-08-05 05:01:00,
2013-08-05 00:05:00,67.0,58.1,29.98,NNE,22,0.0,0.0,73,0.00,,---,0.00,0.00,VWS V14.00,2013-08-05 05:05:00,
2013-08-05 00:06:00,67.0,58.1,29.98,NNE,22,0.0,0.0,73,0.00,,---,0.00,0.00,VWS V14.00,2013-08-05 05:06:00,
2013-08-05 00:10:00,67.0,58.1,29.98,NNE,22,0.0,0.0,73,0.00,,---,0.00,0.00,VWS V14.00,2013-08-05 05:10:00,
2013-08-05 00:11:00,67.0,58.1,29.97,NNE,22,0.0,0.0,73,0.00,,---,0.00,0.00,VWS V14.00,2013-08-05 05:11:00,
2013-08-05 00:15:00,67.0,58.1,29.97,NNE,22,0.0,0.0,73,0.00,,---,0.00,0.00,VWS V14.00,2013-08-05 05:15:00,
2013-08-05 00:16:00,67.0,58.1,29.97,NNE,22,0.0,0.0,73,0.00,,---,0.00,0.00,VWS V14.00,2013-08-05 05:16:00,
2013-08-05 00:20:00,67.0,58.1,29.97,NNE,22,0.0,0.0,73,0.00,,---,0.00,0.00,VWS V14.00,2013-08-05 05:20:00,
2013-08-05 00:21:00,67.0,58.5,29.96,NNE,22,0.0,0.0,74,0.00,,---,0.00,0.00,VWS V14.00,2013-08-05 05:21:00,
2013-08-05 00:25:00,67.0,58.5,29.96,NNE,22,0.0,0.0,74,0.00,,---,0.00,0.00,VWS V14.00,2013-08-05 05:25:00,
2013-08-05 00:26:00,67.0,58.5,29.96,NNE,22,0.0,0.0,74,0.00,,---,0.00,0.00,VWS V14.00,2013-08-05 05:26:00,
2013-08-05 00:30:00,67.0,58.5,29.96,NNE,22,0.0,0.0,74,0.00,,---,0.00,0.00,VWS V14.00,2013-08-05 05:30:00,
2013-08-05 00:31:00,67.0,58.5,29.96,NNE,22,0.0,0.0,74,0.00,,---,0.00,0.00,VWS V14.00,2013-08-05 05:31:00,
2013-08-05 00:35:00,67.0,58.5,29.96,NNE,22,0.0,0.0,74,0.00,,---,0.00,0.00,VWS V14.00,2013-08-05 05:35:00,
2013-08-05 00:36:00,67.0,58.5,29.96,NNE,22,0.0,0.0,74,0.00,,---,0.00,0.00,VWS V14.00,2013-08-05 05:36:00,
2013-08-05 00:40:00,67.0,58.5,29.96,NNE,22,0.0,0.0,74,0.00,,---,0.00,0.00,VWS V14.00,2013-08-05 05:40:00,
2013-08-05 00:41:00,67.0,58.5,29.95,NNE,22,0.0,0.0,74,0.00,,---,0.00,0.00,VWS V14.00,2013-08-05 05:41:00,
2013-08-05 00:45:00,67.0,58.5,29.95,NNE,22,0.0,0.0,74,0.00,,---,0.00,0.00,VWS V14.00,2013-08-05 05:45:00,
2013-08-05 00:50:00,67.0,58.8,29.94,NNE,22,0.0,0.0,75,0.00,,---,0.00,0.00,VWS V14.00,2013-08-05 05:50:00,
2013-08-05 00:55:00,67.0,58.5,29.94,NNE,22,0.0,0.0,74,0.00,,---,0.00,0.00,VWS V14.00,2013-08-05 05:55:00,
2013-08-05 01:00:00,67.0,58.5,29.96,NNE,22,0.0,0.0,74,0.00,,---,0.00,0.00,VWS V14.00,2013-08-05 06:00:00,
2013-08-05 01:01:00,67.0,58.5,29.96,NNE,22,0.0,0.0,74,0.00,,---,0.00,0.00,VWS V14.00,2013-08-05 06:01:00,
2013-08-05 01:05:00,67.0,58.5,29.96,NNE,22,0.0,0.0,74,0.00,,---,0.00,0.00,VWS V14.00,2013-08-05 06:05:00,
2013-08-05 01:06:00,67.0,58.5,29.97,NNE,22,0.0,0.0,74,0.00,,---,0.00,0.00,VWS V14.00,2013-08-05 06:06:00,
2013-08-05 01:10:00,67.0,58.5,29.97,NNE,22,0.0,0.0,74,0.00,,---,0.00,0.00,VWS V14.00,2013-08-05 06:10:00,
2013-08-05 01:11:00,67.0,58.5,29.97,NNE,22,0.0,0.0,74,0.00,,---,0.00,0.00,VWS V14.00,2013-08-05 06:11:00,
2013-08-05 01:15:00,67.0,58.5,29.97,NNE,22,0.0,0.0,74,0.00,,---,0.00,0.00,VWS V14.00,2013-08-05 06:15:00,
2013-08-05 01:16:00,67.0,58.5,29.97,NNE,22,0.0,0.0,74,0.00,,---,0.00,0.00,VWS V14.00,2013-08-05 06:16:00,
2013-08-05 01:20:00,67.0,58.5,29.97,NNE,22,0.0,0.0,74,0.00,,---,0.00,0.00,VWS V14.00,2013-08-05 06:20:00,
2013-08-05 01:21:00,67.0,58.1,29.97,NNE,22,0.0,0.0,73,0.00,,---,0.00,0.00,VWS V14.00,2013-08-05 06:21:00,
2013-08-05 01:25:00,67.0,58.1,29.97,NNE,22,0.0,0.0,73,0.00,,---,0.00,0.00,VWS V14.00,2013-08-05 06:25:00,
2013-08-05 01:26:00,67.0,58.1,29.96,NNE,22,0.0,0.0,73,0.00,,---,0.00,0.00,VWS V14.00,2013-08-05 06:26:00,
2013-08-05 01:30:00,67.0,58.1,29.96,NNE,22,0.0,0.0,73,0.00,,---,0.00,0.00,VWS V14.00,2013-08-05 06:30:00,
2013-08-05 01:31:00,67.0,58.1,29.95,NNE,22,0.0,0.0,73,0.00,,---,0.00,0.00,VWS V14.00,2013-08-05 06:31:00,
2013-08-05 01:35:00,67.0,58.1,29.95,NNE,22,0.0,0.0,73,0.00,,---,0.00,0.00,VWS V14.00,2013-08-05 06:35:00,
2013-08-05 01:36:00,67.0,58.1,29.94,NNE,22,0.0,0.0,73,0.00,,---,0.00,0.00,VWS V14.00,2013-08-05 06:36:00,
2013-08-05 01:40:00,67.0,58.1,29.94,NNE,22,0.0,0.0,73,0.00,,---,0.00,0.00,VWS V14.00,2013-08-05 06:40:00,
2013-08-05 01:41:00,67.0,58.5,29.93,NNE,22,0.0,0.0,74,0.00,,---,0.00,0.00,VWS V14.00,2013-08-05 06:41:00,
2013-08-05 01:45:00,67.0,58.5,29.93,NNE,22,0.0,0.0,74,0.00,,---,0.00,0.00,VWS V14.00,2013-08-05 06:45:00,
2013-08-05 01:46:00,67.0,58.8,29.94,NNE,22,0.0,0.0,75,0.00,,---,0.00,0.00,VWS V14.00,2013-08-05 06:46:00,
2013-08-05 01:50:00,67.0,58.8,29.94,NNE,22,0.0,0.0,75,0.00,,---,0.00,0.00,VWS V14.00,2013-08-05 06:50:00,
2013-08-05 01:51:00,66.0,58.2,29.95,NNE,22,0.0,0.0,76,0.00,,---,0.00,0.00,VWS V14.00,2013-08-05 06:51:00,
2013-08-05 01:55:00,66.0,57.9,29.94,NNE,22,0.0,0.0,75,0.00,,---,0.00,0.00,VWS V14.00,2013-08-05 06:55:00,
2013-08-05 01:56:00,66.0,58.6,29.96,NNE,22,0.0,0.0,77,0.00,,---,0.00,0.00,VWS V14.00,2013-08-05 06:56:00,
2013-08-05 02:00:00,66.0,58.6,29.95,NNE,22,0.0,0.0,77,0.00,,---,0.00,0.00,VWS V14.00,2013-08-05 07:00:00,
2013-08-05 02:01:00,65.0,58.3,29.96,NNE,22,0.0,0.0,79,0.01,,---,0.01,0.00,VWS V14.00,2013-08-05 07:01:00,
2013-08-05 02:05:00,66.0,59.0,29.96,NNE,22,0.0,0.0,78,0.00,,---,0.00,0.00,VWS V14.00,2013-08-05 07:05:00,
2013-08-05 02:06:00,65.0,59.0,29.97,NNE,22,0.0,0.0,81,0.05,,---,0.05,0.00,VWS V14.00,2013-08-05 07:06:00,
2013-08-05 02:10:00,65.0,59.0,29.97,NNE,22,0.0,0.0,81,0.04,,---,0.04,0.00,VWS V14.00,2013-08-05 07:10:00,
2013-08-05 02:11:00,64.0,59.1,29.97,NNE,22,0.0,0.0,84,0.06,,---,0.08,0.00,VWS V14.00,2013-08-05 07:11:00,
2013-08-05 02:15:00,64.0,58.7,29.97,NNE,22,0.0,0.0,83,0.06,,---,0.07,0.00,VWS V14.00,2013-08-05 07:15:00,
2013-08-05 02:16:00,64.0,59.4,29.97,NNE,22,0.0,0.0,85,0.10,,---,0.11,0.00,VWS V14.00,2013-08-05 07:16:00,
2013-08-05 02:20:00,64.0,59.4,29.97,NNE,22,0.0,0.0,85,0.09,,---,0.10,0.00,VWS V14.00,2013-08-05 07:20:00,
2013-08-05 02:21:00,64.0,59.7,29.97,NNE,22,0.0,0.0,86,0.11,,---,0.13,0.00,VWS V14.00,2013-08-05 07:21:00,
2013-08-05 02:25:00,64.0,59.7,29.97,NNE,22,0.0,0.0,86,0.11,,---,0.13,0.00,VWS V14.00,2013-08-05 07:25:00,
2013-08-05 02:26:00,63.0,59.4,29.98,NNE,22,0.0,0.0,88,0.11,,---,0.15,0.00,VWS V14.00,2013-08-05 07:26:00,
2013-08-05 02:30:00,64.0,60.1,29.98,NNE,22,0.0,0.0,87,0.11,,---,0.14,0.00,VWS V14.00,2013-08-05 07:30:00,
2013-08-05 02:31:00,63.0,60.3,29.98,NNE,22,0.0,0.0,91,0.12,,---,0.16,0.00,VWS V14.00,2013-08-05 07:31:00,
2013-08-05 02:35:00,63.0,60.0,29.98,NNE,22,0.0,0.0,90,0.11,,---,0.15,0.00,VWS V14.00,2013-08-05 07:35:00,
2013-08-05 02:36:00,63.0,60.6,29.99,NNE,22,0.0,0.0,92,0.12,,---,0.17,0.00,VWS V14.00,2013-08-05 07:36:00,
2013-08-05 02:40:00,63.0,60.6,29.98,NNE,22,0.0,0.0,92,0.11,,---,0.16,0.00,VWS V14.00,2013-08-05 07:40:00,
2013-08-05 02:41:00,63.0,61.0,29.99,NNE,22,0.0,0.0,93,0.13,,---,0.19,0.00,VWS V14.00,2013-08-05 07:41:00,
2013-08-05 02:45:00,63.0,61.0,29.99,NNE,22,0.0,0.0,93,0.12,,---,0.18,0.00,VWS V14.00,2013-08-05 07:45:00,
2013-08-05 02:46:00,63.0,61.0,29.99,NNE,22,0.0,0.0,93,0.15,,---,0.23,0.00,VWS V14.00,2013-08-05 07:46:00,
2013-08-05 02:50:00,63.0,61.0,29.99,NNE,22,0.0,0.0,93,0.15,,---,0.22,0.00,VWS V14.00,2013-08-05 07:50:00,
2013-08-05 02:51:00,63.0,61.2,29.99,NNE,22,0.0,0.0,94,0.17,,---,0.26,0.00,VWS V14.00,2013-08-05 07:51:00,
2013-08-05 02:55:00,63.0,61.0,29.99,NNE,22,0.0,0.0,93,0.17,,---,0.25,0.00,VWS V14.00,2013-08-05 07:55:00,
2013-08-05 02:56:00,63.0,61.2,29.99,NNE,22,0.0,0.0,94,0.19,,---,0.29,0.00,VWS V14.00,2013-08-05 07:56:00,
2013-08-05 03:00:00,63.0,61.2,29.99,NNE,22,0.0,0.0,94,0.18,,---,0.28,0.00,VWS V14.00,2013-08-05 08:00:00,
2013-08-05 03:01:00,63.0,61.2,29.99,NNE,22,0.0,0.0,94,0.20,,---,0.32,0.00,VWS V14.00,2013-08-05 08:01:00,
2013-08-05 03:05:00,63.0,61.2,29.99,NNE,22,0.0,0.0,94,0.20,,---,0.31,0.00,VWS V14.00,2013-08-05 08:05:00,
2013-08-05 03:06:00,63.0,61.5,29.99,NNE,22,0.0,0.0,95,0.21,,---,0.34,0.00,VWS V14.00,2013-08-05 08:06:00,
2013-08-05 03:10:00,63.0,61.5,29.99,NNE,22,0.0,0.0,95,0.20,,---,0.33,0.00,VWS V14.00,2013-08-05 08:10:00,
2013-08-05 03:11:00,63.0,61.5,29.99,NNE,22,0.0,0.0,95,0.22,,---,0.37,0.00,VWS V14.00,2013-08-05 08:11:00,
2013-08-05 03:15:00,63.0,61.5,29.99,NNE,22,0.0,0.0,95,0.22,,---,0.37,0.00,VWS V14.00,2013-08-05 08:15:00,
2013-08-05 03:16:00,62.0,60.6,29.99,NNE,22,0.0,0.0,95,0.23,,---,0.40,0.00,VWS V14.00,2013-08-05 08:16:00,
2013-08-05 03:20:00,63.0,61.5,29.99,NNE,22,0.0,0.0,95,0.22,,---,0.39,0.00,VWS V14.00,2013-08-05 08:20:00,
2013-08-05 03:21:00,62.0,60.8,29.98,NNE,22,0.0,0.0,96,0.24,,---,0.43,0.00,VWS V14.00,2013-08-05 08:21:00,
2013-08-05 03:25:00,62.0,60.8,29.98,NNE,22,0.0,0.0,96,0.23,,---,0.42,0.00,VWS V14.00,2013-08-05 08:25:00,
2013-08-05 03:26:00,62.0,61.1,29.98,NNE,22,0.0,0.0,97,0.25,,---,0.46,0.00,VWS V14.00,2013-08-05 08:26:00,
2013-08-05 03:30:00,62.0,60.8,29.98,NNE,22,0.0,0.0,96,0.24,,---,0.45,0.00,VWS V14.00,2013-08-05 08:30:00,
2013-08-05 03:31:00,62.0,61.1,29.97,NNE,22,0.0,0.0,97,0.25,,---,0.48,0.00,VWS V14.00,2013-08-05 08:31:00,
2013-08-05 03:35:00,62.0,61.1,29.97,NNE,22,0.0,0.0,97,0.25,,---,0.49,0.00,VWS V14.00,2013-08-05 08:35:00,
2013-08-05 03:40:00,62.0,61.4,29.96,NNE,22,0.0,0.0,98,0.25,,---,0.52,0.00,VWS V14.00,2013-08-05 08:40:00,
2013-08-05 03:45:00,62.0,61.4,29.95,NNE,22,0.0,0.0,98,0.25,,---,0.54,0.00,VWS V14.00,2013-08-05 08:45:00,
2013-08-05 03:50:00,62.0,61.7,29.89,NNE,22,0.0,0.0,99,0.25,,---,0.57,0.00,VWS V14.00,2013-08-05 08:50:00,
2013-08-05 03:55:00,62.0,61.7,29.86,NNE,22,0.0,0.0,99,0.26,,---,0.59,0.00,VWS V14.00,2013-08-05 08:55:00,
2013-08-05 04:00:00,62.0,62.0,29.87,NNE,22,0.0,0.0,100,0.25,,---,0.60,0.00,VWS V14.00,2013-08-05 09:00:00,
2013-08-05 04:05:00,62.0,62.0,29.88,NNE,22,0.0,0.0,100,0.23,,---,0.60,0.00,VWS V14.00,2013-08-05 09:05:00,
2013-08-05 04:10:00,62.0,62.0,29.89,NNE,22,0.0,0.0,100,0.21,,---,0.60,0.00,VWS V14.00,2013-08-05 09:10:00,
2013-08-05 04:14:00,62.0,62.0,29.89,NNE,22,0.0,0.0,100,0.19,,---,0.60,0.00,VWS V14.00,2013-08-05 09:14:00,
2013-08-05 04:15:00,62.0,62.0,29.89,NNE,22,0.0,0.0,100,0.21,,---,0.60,0.00,VWS V14.00,2013-08-05 09:15:00,
2013-08-05 04:19:00,63.0,63.0,29.90,NNE,22,0.0,0.0,100,0.18,,---,0.60,0.00,VWS V14.00,2013-08-05 09:19:00,
2013-08-05 04:20:00,62.0,62.0,29.89,NNE,22,0.0,0.0,100,0.19,,---,0.60,0.00,VWS V14.00,2013-08-05 09:20:00,
2013-08-05 04:25:00,63.0,62.7,29.90,NNE,22,0.0,0.0,99,0.16,,---,0.60,0.00,VWS V14.00,2013-08-05 09:25:00,
2013-08-05 04:30:00,63.0,62.7,29.90,NNE,22,0.0,0.0,99,0.15,,---,0.60,0.00,VWS V14.00,2013-08-05 09:30:00,
2013-08-05 04:35:00,63.0,62.7,29.91,NNE,22,0.0,0.0,99,0.14,,---,0.60,0.00,VWS V14.00,2013-08-05 09:35:00,
2013-08-05 04:40:00,63.0,62.7,29.90,NNE,22,0.0,0.0,99,0.13,,---,0.60,0.00,VWS V14.00,2013-08-05 09:40:00,
2013-08-05 04:45:00,63.0,62.7,29.90,NNE,22,0.0,0.0,99,0.12,,---,0.60,0.00,VWS V14.00,2013-08-05 09:45:00,
2013-08-05 04:50:00,63.0,62.7,29.90,NNE,22,0.0,0.0,99,0.11,,---,0.60,0.00,VWS V14.00,2013-08-05 09:50:00,
2013-08-05 04:55:00,63.0,62.7,29.90,NNE,22,0.0,0.0,99,0.10,,---,0.60,0.00,VWS V14.00,2013-08-05 09:55:00,
2013-08-05 05:00:00,63.0,62.7,29.90,NNE,22,0.0,0.0,99,0.09,,---,0.60,0.00,VWS V14.00,2013-08-05 10:00:00,
2013-08-05 05:04:00,63.0,62.7,29.89,NNE,22,0.0,0.0,99,0.08,,---,0.60,0.00,VWS V14.00,2013-08-05 10:04:00,
2013-08-05 05:05:00,63.0,62.7,29.90,NNE,22,0.0,0.0,99,0.09,,---,0.60,0.00,VWS V14.00,2013-08-05 10:05:00,
2013-08-05 05:10:00,63.0,62.7,29.90,NNE,22,0.0,0.0,99,0.08,,---,0.60,0.00,VWS V14.00,2013-08-05 10:10:00,
2013-08-05 05:15:00,63.0,62.7,29.90,NNE,22,0.0,0.0,99,0.07,,---,0.60,0.00,VWS V14.00,2013-08-05 10:15:00,
2013-08-05 05:19:00,63.0,62.7,29.91,NNE,22,0.0,0.0,99,0.07,,---,0.60,0.00,VWS V14.00,2013-08-05 10:19:00,
2013-08-05 05:20:00,63.0,62.7,29.90,NNE,22,0.0,0.0,99,0.07,,---,0.60,0.00,VWS V14.00,2013-08-05 10:20:00,
2013-08-05 05:25:00,63.0,62.7,29.90,NNE,22,0.0,0.0,99,0.06,,---,0.60,0.00,VWS V14.00,2013-08-05 10:25:00,
2013-08-05 05:30:00,63.0,62.7,29.91,NNE,22,0.0,0.0,99,0.06,,---,0.60,0.00,VWS V14.00,2013-08-05 10:30:00,
2013-08-05 05:34:00,63.0,62.7,29.91,NNE,22,0.0,0.0,99,0.05,,---,0.60,0.00,VWS V14.00,2013-08-05 10:34:00,
2013-08-05 05:35:00,63.0,62.7,29.91,NNE,22,0.0,0.0,99,0.05,,---,0.60,0.00,VWS V14.00,2013-08-05 10:35:00,
2013-08-05 05:40:00,63.0,62.7,29.92,NNE,22,0.0,0.0,99,0.05,,---,0.60,0.00,VWS V14.00,2013-08-05 10:40:00,
2013-08-05 05:44:00,63.0,62.7,29.91,NNE,22,0.0,0.0,99,0.04,,---,0.60,0.00,VWS V14.00,2013-08-05 10:44:00,
2013-08-05 05:45:00,63.0,62.7,29.92,NNE,22,0.0,0.0,99,0.05,,---,0.60,0.00,VWS V14.00,2013-08-05 10:45:00,
2013-08-05 05:49:00,63.0,62.7,29.91,NNE,22,0.0,0.0,99,0.04,,---,0.60,0.00,VWS V14.00,2013-08-05 10:49:00,
2013-08-05 05:50:00,63.0,62.7,29.91,NNE,22,0.0,0.0,99,0.04,,---,0.60,0.00,VWS V14.00,2013-08-05 10:50:00,
2013-08-05 05:55:00,63.0,63.0,29.92,NNE,22,0.0,0.0,100,0.04,,---,0.60,0.00,VWS V14.00,2013-08-05 10:55:00,
2013-08-05 05:59:00,63.0,63.0,29.91,NNE,22,0.0,0.0,100,0.03,,---,0.60,0.00,VWS V14.00,2013-08-05 10:59:00,
2013-08-05 06:00:00,63.0,63.0,29.92,NNE,22,0.0,0.0,100,0.04,,---,0.60,0.00,VWS V14.00,2013-08-05 11:00:00,
2013-08-05 06:04:00,63.0,63.0,29.91,NNE,22,0.0,0.0,100,0.03,,---,0.60,1.00,VWS V14.00,2013-08-05 11:04:00,
2013-08-05 06:05:00,63.0,63.0,29.91,NNE,22,0.0,0.0,100,0.03,,---,0.60,0.00,VWS V14.00,2013-08-05 11:05:00,
2013-08-05 06:10:00,63.0,63.0,29.91,NNE,22,0.0,0.0,100,0.03,,---,0.60,1.00,VWS V14.00,2013-08-05 11:10:00,
2013-08-05 06:14:00,63.0,63.0,29.91,NNE,22,0.0,0.0,100,0.03,,---,0.60,1.00,VWS V14.00,2013-08-05 11:14:00,
2013-08-05 06:15:00,63.0,63.0,29.91,NNE,22,0.0,0.0,100,0.03,,---,0.60,1.00,VWS V14.00,2013-08-05 11:15:00,
2013-08-05 06:20:00,63.0,63.0,29.91,NNE,22,0.0,0.0,100,0.02,,---,0.60,2.00,VWS V14.00,2013-08-05 11:20:00,
2013-08-05 06:25:00,63.0,63.0,29.90,NNE,22,0.0,0.0,100,0.02,,---,0.60,2.00,VWS V14.00,2013-08-05 11:25:00,
2013-08-05 06:30:00,63.0,63.0,29.91,NNE,22,0.0,0.0,100,0.02,,---,0.60,2.00,VWS V14.00,2013-08-05 11:30:00,
2013-08-05 06:35:00,63.0,63.0,29.91,NNE,22,0.0,0.0,100,0.03,,---,0.61,2.00,VWS V14.00,2013-08-05 11:35:00,
2013-08-05 06:39:00,63.0,63.0,29.90,NNE,22,0.0,0.0,100,0.03,,---,0.61,2.00,VWS V14.00,2013-08-05 11:39:00,
2013-08-05 06:40:00,63.0,63.0,29.91,NNE,22,0.0,0.0,100,0.03,,---,0.61,2.00,VWS V14.00,2013-08-05 11:40:00,
2013-08-05 06:44:00,63.0,63.0,29.90,NNE,22,0.0,0.0,100,0.02,,---,0.61,3.00,VWS V14.00,2013-08-05 11:44:00,
2013-08-05 06:45:00,63.0,63.0,29.90,NNE,22,0.0,0.0,100,0.03,,---,0.61,2.00,VWS V14.00,2013-08-05 11:45:00,
2013-08-05 06:50:00,63.0,63.0,29.90,NNE,22,0.0,0.0,100,0.02,,---,0.61,4.00,VWS V14.00,2013-08-05 11:50:00,
2013-08-05 06:55:00,63.0,63.0,29.90,NNE,22,0.0,0.0,100,0.02,,---,0.61,3.00,VWS V14.00,2013-08-05 11:55:00,
2013-08-05 07:00:00,63.0,63.0,29.90,NNE,22,0.0,0.0,100,0.02,,---,0.61,3.00,VWS V14.00,2013-08-05 12:00:00,
2013-08-05 07:05:00,63.0,63.0,29.91,NNE,22,0.0,0.0,100,0.02,,---,0.61,5.00,VWS V14.00,2013-08-05 12:05:00,
2013-08-05 07:09:00,63.0,63.0,29.91,NNE,22,0.0,0.0,100,0.02,,---,0.61,5.00,VWS V14.00,2013-08-05 12:09:00,
2013-08-05 07:10:00,63.0,63.0,29.90,NNE,22,0.0,0.0,100,0.02,,---,0.61,5.00,VWS V14.00,2013-08-05 12:10:00,
2013-08-05 07:15:00,63.0,63.0,29.91,NNE,22,0.0,0.0,100,0.01,,---,0.61,4.00,VWS V14.00,2013-08-05 12:15:00,
2013-08-05 07:20:00,64.0,64.0,29.92,NNE,22,0.0,0.0,100,0.01,,---,0.61,2.00,VWS V14.00,2013-08-05 12:20:00,
2013-08-05 07:25:00,64.0,64.0,29.92,NNE,22,0.0,0.0,100,0.01,,---,0.61,2.00,VWS V14.00,2013-08-05 12:25:00,
2013-08-05 07:30:00,64.0,64.0,29.91,NNE,22,0.0,0.0,100,0.01,,---,0.61,3.00,VWS V14.00,2013-08-05 12:30:00,
2013-08-05 07:35:00,64.0,64.0,29.91,NNE,22,0.0,0.0,100,0.01,,---,0.61,2.00,VWS V14.00,2013-08-05 12:35:00,
2013-08-05 07:40:00,64.0,64.0,29.90,NNE,22,0.0,0.0,100,0.01,,---,0.61,5.00,VWS V14.00,2013-08-05 12:40:00,
2013-08-05 07:45:00,64.0,64.0,29.91,NNE,22,0.0,0.0,100,0.01,,---,0.61,4.00,VWS V14.00,2013-08-05 12:45:00,
2013-08-05 07:50:00,64.0,64.0,29.91,NNE,22,0.0,0.0,100,0.01,,---,0.61,3.00,VWS V14.00,2013-08-05 12:50:00,
2013-08-05 07:55:00,64.0,64.0,29.90,NNE,22,0.0,0.0,100,0.01,,---,0.61,4.00,VWS V14.00,2013-08-05 12:55:00,
2013-08-05 08:00:00,64.0,64.0,29.90,NNE,22,0.0,0.0,100,0.01,,---,0.61,6.00,VWS V14.00,2013-08-05 13:00:00,
2013-08-05 08:05:00,64.0,64.0,29.90,NNE,22,0.0,0.0,100,0.01,,---,0.61,6.00,VWS V14.00,2013-08-05 13:05:00,
2013-08-05 08:09:00,64.0,64.0,29.90,NNE,22,0.0,0.0,100,0.01,,---,0.61,8.00,VWS V14.00,2013-08-05 13:09:00,
2013-08-05 08:10:00,64.0,64.0,29.90,NNE,22,0.0,0.0,100,0.01,,---,0.61,7.00,VWS V14.00,2013-08-05 13:10:00,
2013-08-05 08:14:00,65.0,65.0,29.89,NNE,22,0.0,0.0,100,0.01,,---,0.61,7.00,VWS V14.00,2013-08-05 13:14:00,
2013-08-05 08:15:00,64.0,64.0,29.90,NNE,22,0.0,0.0,100,0.01,,---,0.61,7.00,VWS V14.00,2013-08-05 13:15:00,
2013-08-05 08:19:00,65.0,65.0,29.90,NNE,22,0.0,0.0,100,0.00,,---,0.61,8.00,VWS V14.00,2013-08-05 13:19:00,
2013-08-05 08:20:00,65.0,65.0,29.90,NNE,22,0.0,0.0,100,0.00,,---,0.61,7.00,VWS V14.00,2013-08-05 13:20:00,
2013-08-05 08:24:00,65.0,65.0,29.90,NNE,22,0.0,0.0,100,0.00,,---,0.61,7.00,VWS V14.00,2013-08-05 13:24:00,
2013-08-05 08:25:00,65.0,65.0,29.89,NNE,22,0.0,0.0,100,0.00,,---,0.61,8.00,VWS V14.00,2013-08-05 13:25:00,
2013-08-05 08:29:00,65.0,65.0,29.89,NNE,22,0.0,0.0,100,0.00,,---,0.61,5.00,VWS V14.00,2013-08-05 13:29:00,
2013-08-05 08:30:00,65.0,65.0,29.89,NNE,22,0.0,0.0,100,0.00,,---,0.61,7.00,VWS V14.00,2013-08-05 13:30:00,
2013-08-05 08:34:00,65.0,65.0,29.89,NNE,22,0.0,0.0,100,0.00,,---,0.61,9.00,VWS V14.00,2013-08-05 13:34:00,
2013-08-05 08:35:00,65.0,65.0,29.90,NNE,22,0.0,0.0,100,0.00,,---,0.61,6.00,VWS V14.00,2013-08-05 13:35:00,
2013-08-05 08:39:00,65.0,65.0,29.89,NNE,22,0.0,0.0,100,0.00,,---,0.61,9.00,VWS V14.00,2013-08-05 13:39:00,
2013-08-05 08:40:00,65.0,65.0,29.89,NNE,22,0.0,0.0,100,0.00,,---,0.61,9.00,VWS V14.00,2013-08-05 13:40:00,
2013-08-05 08:44:00,65.0,65.0,29.89,NNE,22,0.0,0.0,100,0.00,,---,0.61,8.00,VWS V14.00,2013-08-05 13:44:00,
2013-08-05 08:45:00,65.0,65.0,29.89,NNE,22,0.0,0.0,100,0.00,,---,0.61,9.00,VWS V14.00,2013-08-05 13:45:00,
2013-08-05 08:49:00,65.0,65.0,29.89,NNE,22,0.0,0.0,100,0.00,,---,0.61,10.00,VWS V14.00,2013-08-05 13:49:00,
2013-08-05 08:50:00,65.0,65.0,29.89,NNE,22,0.0,0.0,100,0.00,,---,0.61,8.00,VWS V14.00,2013-08-05 13:50:00,
2013-08-05 08:54:00,66.0,66.0,29.89,NNE,22,0.0,0.0,100,0.00,,---,0.61,10.00,VWS V14.00,2013-08-05 13:54:00,
2013-08-05 08:55:00,65.0,65.0,29.89,NNE,22,0.0,0.0,100,0.00,,---,0.61,11.00,VWS V14.00,2013-08-05 13:55:00,
2013-08-05 08:59:00,66.0,66.0,29.89,NNE,22,0.0,0.0,100,0.00,,---,0.61,13.00,VWS V14.00,2013-08-05 13:59:00,
2013-08-05 09:00:00,66.0,66.0,29.89,NNE,22,0.0,0.0,100,0.00,,---,0.61,9.00,VWS V14.00,2013-08-05 14:00:00,
2013-08-05 09:04:00,66.0,65.7,29.89,NNE,22,0.0,0.0,99,0.00,,---,0.61,11.00,VWS V14.00,2013-08-05 14:04:00,
2013-08-05 09:05:00,66.0,66.0,29.89,NNE,22,0.0,0.0,100,0.00,,---,0.61,12.00,VWS V14.00,2013-08-05 14:05:00,
2013-08-05 09:09:00,66.0,65.7,29.89,NNE,22,0.0,0.0,99,0.00,,---,0.61,11.00,VWS V14.00,2013-08-05 14:09:00,
2013-08-05 09:10:00,66.0,65.7,29.89,NNE,22,0.0,0.0,99,0.00,,---,0.61,11.00,VWS V14.00,2013-08-05 14:10:00,
2013-08-05 09:14:00,66.0,65.7,29.90,NNE,22,0.0,0.0,99,0.00,,---,0.61,7.00,VWS V14.00,2013-08-05 14:14:00,
2013-08-05 09:15:00,66.0,65.7,29.90,NNE,22,0.0,0.0,99,0.00,,---,0.61,11.00,VWS V14.00,2013-08-05 14:15:00,
2013-08-05 09:19:00,66.0,65.7,29.90,NNE,22,0.0,0.0,99,0.00,,---,0.61,16.00,VWS V14.00,2013-08-05 14:19:00,
2013-08-05 09:20:00,66.0,65.7,29.90,NNE,22,0.0,0.0,99,0.00,,---,0.61,8.00,VWS V14.00,2013-08-05 14:20:00,
2013-08-05 09:24:00,66.0,65.7,29.89,NNE,22,0.0,0.0,99,0.00,,---,0.61,19.00,VWS V14.00,2013-08-05 14:24:00,
2013-08-05 09:25:00,66.0,65.7,29.90,NNE,22,0.0,0.0,99,0.00,,---,0.61,17.00,VWS V14.00,2013-08-05 14:25:00,
2013-08-05 09:29:00,66.0,65.7,29.89,NNE,22,0.0,0.0,99,0.00,,---,0.61,16.00,VWS V14.00,2013-08-05 14:29:00,
2013-08-05 09:30:00,66.0,65.7,29.89,NNE,22,0.0,0.0,99,0.00,,---,0.61,19.00,VWS V14.00,2013-08-05 14:30:00,
2013-08-05 09:34:00,66.0,65.7,29.90,NNE,22,0.0,0.0,99,0.00,,---,0.61,11.00,VWS V14.00,2013-08-05 14:34:00,
2013-08-05 09:35:00,66.0,65.7,29.90,NNE,22,0.0,0.0,99,0.00,,---,0.61,16.00,VWS V14.00,2013-08-05 14:35:00,
2013-08-05 09:39:00,67.0,66.4,29.89,NNE,22,0.0,0.0,98,0.00,,---,0.61,14.00,VWS V14.00,2013-08-05 14:39:00,
2013-08-05 09:40:00,66.0,65.4,29.90,NNE,22,0.0,0.0,98,0.00,,---,0.61,11.00,VWS V14.00,2013-08-05 14:40:00,
2013-08-05 09:44:00,67.0,66.4,29.89,NNE,22,0.0,0.0,98,0.00,,---,0.61,20.00,VWS V14.00,2013-08-05 14:44:00,
2013-08-05 09:45:00,67.0,66.4,29.89,NNE,22,0.0,0.0,98,0.00,,---,0.61,14.00,VWS V14.00,2013-08-05 14:45:00,
2013-08-05 09:49:00,67.0,66.4,29.88,NNE,22,0.0,0.0,98,0.00,,---,0.61,19.00,VWS V14.00,2013-08-05 14:49:00,
2013-08-05 09:50:00,67.0,66.4,29.89,NNE,22,0.0,0.0,98,0.00,,---,0.61,27.00,VWS V14.00,2013-08-05 14:50:00,
2013-08-05 09:54:00,68.0,67.1,29.88,NNE,22,0.0,0.0,97,0.00,,---,0.61,56.00,VWS V14.00,2013-08-05 14:54:00,
2013-08-05 09:55:00,67.0,66.4,29.88,NNE,22,0.0,0.0,98,0.00,,---,0.61,20.00,VWS V14.00,2013-08-05 14:55:00,
2013-08-05 09:59:00,68.0,66.8,29.88,NNE,22,0.0,0.0,96,0.00,,---,0.61,61.00,VWS V14.00,2013-08-05 14:59:00,
2013-08-05 10:00:00,67.0,66.1,29.88,NNE,22,0.0,0.0,97,0.00,,---,0.61,57.00,VWS V14.00,2013-08-05 15:00:00,
2013-08-05 10:04:00,68.0,66.2,29.88,NNE,22,0.0,0.0,94,0.00,,---,0.61,33.00,VWS V14.00,2013-08-05 15:04:00,
2013-08-05 10:05:00,68.0,66.5,29.88,NNE,22,0.0,0.0,95,0.00,,---,0.61,49.00,VWS V14.00,2013-08-05 15:05:00,
2013-08-05 10:09:00,68.0,65.9,29.87,NNE,22,0.0,0.0,93,0.00,,---,0.61,47.00,VWS V14.00,2013-08-05 15:09:00,
2013-08-05 10:10:00,68.0,65.9,29.88,NNE,22,0.0,0.0,93,0.00,,---,0.61,25.00,VWS V14.00,2013-08-05 15:10:00,
2013-08-05 10:14:00,69.0,67.2,29.87,NNE,22,0.0,0.0,94,0.00,,---,0.61,24.00,VWS V14.00,2013-08-05 15:14:00,
2013-08-05 10:15:00,69.0,67.2,29.87,NNE,22,0.0,0.0,94,0.00,,---,0.61,45.00,VWS V14.00,2013-08-05 15:15:00,
2013-08-05 10:19:00,69.0,66.9,29.86,NNE,22,0.0,0.0,93,0.00,,---,0.61,23.00,VWS V14.00,2013-08-05 15:19:00,
2013-08-05 10:20:00,69.0,66.9,29.87,NNE,22,0.0,0.0,93,0.00,,---,0.61,23.00,VWS V14.00,2013-08-05 15:20:00,
2013-08-05 10:24:00,69.0,66.6,29.86,NNE,22,0.0,0.0,92,0.00,,---,0.61,20.00,VWS V14.00,2013-08-05 15:24:00,
2013-08-05 10:25:00,69.0,66.6,29.86,NNE,22,0.0,0.0,92,0.00,,---,0.61,25.00,VWS V14.00,2013-08-05 15:25:00,
2013-08-05 10:29:00,69.0,66.3,29.87,NNE,22,0.0,0.0,91,0.00,,---,0.61,17.00,VWS V14.00,2013-08-05 15:29:00,
2013-08-05 10:30:00,69.0,66.6,29.87,NNE,22,0.0,0.0,92,0.00,,---,0.61,19.00,VWS V14.00,2013-08-05 15:30:00,
2013-08-05 10:34:00,69.0,66.3,29.87,NNE,22,0.0,0.0,91,0.00,,---,0.61,23.00,VWS V14.00,2013-08-05 15:34:00,
2013-08-05 10:35:00,69.0,66.3,29.87,NNE,22,0.0,0.0,91,0.00,,---,0.61,17.00,VWS V14.00,2013-08-05 15:35:00,
2013-08-05 10:39:00,69.0,65.9,29.86,NNE,22,0.0,0.0,90,0.00,,---,0.61,23.00,VWS V14.00,2013-08-05 15:39:00,
2013-08-05 10:40:00,69.0,66.3,29.87,NNE,22,0.0,0.0,91,0.00,,---,0.61,13.00,VWS V14.00,2013-08-05 15:40:00,
2013-08-05 10:44:00,69.0,65.9,29.86,NNE,22,0.0,0.0,90,0.00,,---,0.61,28.00,VWS V14.00,2013-08-05 15:44:00,
2013-08-05 10:45:00,69.0,65.9,29.86,NNE,22,0.0,0.0,90,0.00,,---,0.61,18.00,VWS V14.00,2013-08-05 15:45:00,
2013-08-05 10:49:00,69.0,65.9,29.86,NNE,22,0.0,0.0,90,0.00,,---,0.61,22.00,VWS V14.00,2013-08-05 15:49:00,
2013-08-05 10:50:00,69.0,65.9,29.86,NNE,22,0.0,0.0,90,0.00,,---,0.61,22.00,VWS V14.00,2013-08-05 15:50:00,
2013-08-05 10:54:00,70.0,66.9,29.86,NNE,22,0.0,0.0,90,0.00,,---,0.61,16.00,VWS V14.00,2013-08-05 15:54:00,
2013-08-05 10:55:00,69.0,65.9,29.86,NNE,22,0.0,0.0,90,0.00,,---,0.61,21.00,VWS V14.00,2013-08-05 15:55:00,
2013-08-05 10:59:00,70.0,66.6,29.87,NNE,22,0.0,0.0,89,0.00,,---,0.61,21.00,VWS V14.00,2013-08-05 15:59:00,
2013-08-05 11:00:00,70.0,66.6,29.86,NNE,22,0.0,0.0,89,0.00,,---,0.61,19.00,VWS V14.00,2013-08-05 16:00:00,
2013-08-05 11:04:00,70.0,66.6,29.87,NNE,22,0.0,0.0,89,0.00,,---,0.61,18.00,VWS V14.00,2013-08-05 16:04:00,
2013-08-05 11:05:00,70.0,66.6,29.87,NNE,22,0.0,0.0,89,0.00,,---,0.61,21.00,VWS V14.00,2013-08-05 16:05:00,
2013-08-05 11:09:00,69.0,65.6,29.87,NNE,22,0.0,0.0,89,0.00,,---,0.61,18.00,VWS V14.00,2013-08-05 16:09:00,
2013-08-05 11:10:00,70.0,66.6,29.87,NNE,22,0.0,0.0,89,0.00,,---,0.61,14.00,VWS V14.00,2013-08-05 16:10:00,
2013-08-05 11:14:00,70.0,66.6,29.87,NNE,22,0.0,0.0,89,0.00,,---,0.61,15.00,VWS V14.00,2013-08-05 16:14:00,
2013-08-05 11:15:00,69.0,65.6,29.87,NNE,22,0.0,0.0,89,0.00,,---,0.61,17.00,VWS V14.00,2013-08-05 16:15:00,
2013-08-05 11:19:00,70.0,66.6,29.86,NNE,22,0.0,0.0,89,0.00,,---,0.61,20.00,VWS V14.00,2013-08-05 16:19:00,
2013-08-05 11:20:00,70.0,66.6,29.87,NNE,22,0.0,0.0,89,0.00,,---,0.61,14.00,VWS V14.00,2013-08-05 16:20:00,
2013-08-05 11:24:00,69.0,65.3,29.87,NNE,22,0.0,0.0,88,0.00,,---,0.61,16.00,VWS V14.00,2013-08-05 16:24:00,
2013-08-05 11:25:00,70.0,66.6,29.87,NNE,22,0.0,0.0,89,0.00,,---,0.61,19.00,VWS V14.00,2013-08-05 16:25:00,
2013-08-05 11:29:00,69.0,65.6,29.87,NNE,22,0.0,0.0,89,0.00,,---,0.61,19.00,VWS V14.00,2013-08-05 16:29:00,
2013-08-05 11:30:00,70.0,66.3,29.87,NNE,22,0.0,0.0,88,0.00,,---,0.61,19.00,VWS V14.00,2013-08-05 16:30:00,
2013-08-05 11:34:00,70.0,66.6,29.87,NNE,22,0.0,0.0,89,0.00,,---,0.61,17.00,VWS V14.00,2013-08-05 16:34:00,
2013-08-05 11:35:00,69.0,65.3,29.87,NNE,22,0.0,0.0,88,0.00,,---,0.61,19.00,VWS V14.00,2013-08-05 16:35:00,
2013-08-05 11:39:00,69.0,65.3,29.87,NNE,22,0.0,0.0,88,0.00,,---,0.61,14.00,VWS V14.00,2013-08-05 16:39:00,
2013-08-05 11:40:00,70.0,66.3,29.87,NNE,22,0.0,0.0,88,0.00,,---,0.61,16.00,VWS V14.00,2013-08-05 16:40:00,
2013-08-05 11:44:00,70.0,66.3,29.87,NNE,22,0.0,0.0,88,0.00,,---,0.61,17.00,VWS V14.00,2013-08-05 16:44:00,
2013-08-05 11:45:00,70.0,66.3,29.87,NNE,22,0.0,0.0,88,0.00,,---,0.61,15.00,VWS V14.00,2013-08-05 16:45:00,
2013-08-05 11:49:00,70.0,66.3,29.87,NNE,22,0.0,0.0,88,0.00,,---,0.61,18.00,VWS V14.00,2013-08-05 16:49:00,
2013-08-05 11:50:00,70.0,66.3,29.87,NNE,22,0.0,0.0,88,0.00,,---,0.61,16.00,VWS V14.00,2013-08-05 16:50:00,
2013-08-05 11:54:00,70.0,66.0,29.87,NNE,22,0.0,0.0,87,0.00,,---,0.61,23.00,VWS V14.00,2013-08-05 16:54:00,
2013-08-05 11:55:00,70.0,66.3,29.87,NNE,22,0.0,0.0,88,0.00,,---,0.61,18.00,VWS V14.00,2013-08-05 16:55:00,
2013-08-05 11:59:00,70.0,66.0,29.87,NNE,22,0.0,0.0,87,0.00,,---,0.61,20.00,VWS V14.00,2013-08-05 16:59:00,
2013-08-05 12:00:00,70.0,66.3,29.87,NNE,22,0.0,0.0,88,0.00,,---,0.61,24.00,VWS V14.00,2013-08-05 17:00:00,
2013-08-05 12:04:00,70.0,66.0,29.86,NNE,22,0.0,0.0,87,0.00,,---,0.61,15.00,VWS V14.00,2013-08-05 17:04:00,
2013-08-05 12:05:00,70.0,66.3,29.87,NNE,22,0.0,0.0,88,0.00,,---,0.61,19.00,VWS V14.00,2013-08-05 17:05:00,
2013-08-05 12:09:00,70.0,66.0,29.86,NNE,22,0.0,0.0,87,0.00,,---,0.61,14.00,VWS V14.00,2013-08-05 17:09:00,
2013-08-05 12:10:00,70.0,66.0,29.86,NNE,22,0.0,0.0,87,0.00,,---,0.61,15.00,VWS V14.00,2013-08-05 17:10:00,
2013-08-05 12:14:00,71.0,66.9,29.86,NNE,22,0.0,0.0,87,0.00,,---,0.61,14.00,VWS V14.00,2013-08-05 17:14:00,
2013-08-05 12:15:00,70.0,66.0,29.86,NNE,22,0.0,0.0,87,0.00,,---,0.61,13.00,VWS V14.00,2013-08-05 17:15:00,
2013-08-05 12:19:00,71.0,67.3,29.86,NNE,22,0.0,0.0,88,0.00,,---,0.61,12.00,VWS V14.00,2013-08-05 17:19:00,
2013-08-05 12:20:00,70.0,66.0,29.86,NNE,22,0.0,0.0,87,0.00,,---,0.61,13.00,VWS V14.00,2013-08-05 17:20:00,
2013-08-05 12:24:00,70.0,66.0,29.86,NNE,22,0.0,0.0,87,0.00,,---,0.61,17.00,VWS V14.00,2013-08-05 17:24:00,
2013-08-05 12:25:00,71.0,67.3,29.86,NNE,22,0.0,0.0,88,0.00,,---,0.61,13.00,VWS V14.00,2013-08-05 17:25:00,
2013-08-05 12:29:00,71.0,67.3,29.86,NNE,22,0.0,0.0,88,0.00,,---,0.61,18.00,VWS V14.00,2013-08-05 17:29:00,
2013-08-05 12:30:00,70.0,66.0,29.86,NNE,22,0.0,0.0,87,0.00,,---,0.61,17.00,VWS V14.00,2013-08-05 17:30:00,
2013-08-05 12:34:00,71.0,67.3,29.86,NNE,22,0.0,0.0,88,0.00,,---,0.61,22.00,VWS V14.00,2013-08-05 17:34:00,
2013-08-05 12:35:00,71.0,67.3,29.86,NNE,22,0.0,0.0,88,0.00,,---,0.61,19.00,VWS V14.00,2013-08-05 17:35:00,
2013-08-05 12:39:00,71.0,67.3,29.85,NNE,22,0.0,0.0,88,0.00,,---,0.61,15.00,VWS V14.00,2013-08-05 17:39:00,
2013-08-05 12:40:00,70.0,66.3,29.86,NNE,22,0.0,0.0,88,0.00,,---,0.61,21.00,VWS V14.00,2013-08-05 17:40:00,
2013-08-05 12:44:00,71.0,66.9,29.86,NNE,22,0.0,0.0,87,0.00,,---,0.61,16.00,VWS V14.00,2013-08-05 17:44:00,
2013-08-05 12:45:00,71.0,67.3,29.86,NNE,22,0.0,0.0,88,0.00,,---,0.61,15.00,VWS V14.00,2013-08-05 17:45:00,
2013-08-05 12:49:00,71.0,66.9,29.86,NNE,22,0.0,0.0,87,0.00,,---,0.61,15.00,VWS V14.00,2013-08-05 17:49:00,
2013-08-05 12:50:00,71.0,66.9,29.85,NNE,22,0.0,0.0,87,0.00,,---,0.61,17.00,VWS V14.00,2013-08-05 17:50:00,
2013-08-05 12:54:00,71.0,66.9,29.86,NNE,22,0.0,0.0,87,0.00,,---,0.61,12.00,VWS V14.00,2013-08-05 17:54:00,
2013-08-05 12:55:00,71.0,66.9,29.86,NNE,22,0.0,0.0,87,0.00,,---,0.61,15.00,VWS V14.00,2013-08-05 17:55:00,
2013-08-05 12:59:00,71.0,66.9,29.86,NNE,22,0.0,0.0,87,0.00,,---,0.61,9.00,VWS V14.00,2013-08-05 17:59:00,
2013-08-05 13:00:00,71.0,66.9,29.86,NNE,22,0.0,0.0,87,0.00,,---,0.61,11.00,VWS V14.00,2013-08-05 18:00:00,
2013-08-05 13:04:00,71.0,66.6,29.86,NNE,22,0.0,0.0,86,0.00,,---,0.61,8.00,VWS V14.00,2013-08-05 18:04:00,
2013-08-05 13:05:00,71.0,66.9,29.86,NNE,22,0.0,0.0,87,0.00,,---,0.61,9.00,VWS V14.00,2013-08-05 18:05:00,
2013-08-05 13:09:00,71.0,66.6,29.86,NNE,22,0.0,0.0,86,0.00,,---,0.61,8.00,VWS V14.00,2013-08-05 18:09:00,
2013-08-05 13:10:00,71.0,66.6,29.86,NNE,22,0.0,0.0,86,0.00,,---,0.61,8.00,VWS V14.00,2013-08-05 18:10:00,
2013-08-05 13:14:00,71.0,66.6,29.86,NNE,22,0.0,0.0,86,0.00,,---,0.61,12.00,VWS V14.00,2013-08-05 18:14:00,
2013-08-05 13:15:00,71.0,66.6,29.86,NNE,22,0.0,0.0,86,0.00,,---,0.61,9.00,VWS V14.00,2013-08-05 18:15:00,
2013-08-05 13:19:00,71.0,66.9,29.86,NNE,22,0.0,0.0,87,0.00,,---,0.61,10.00,VWS V14.00,2013-08-05 18:19:00,
2013-08-05 13:20:00,71.0,66.6,29.86,NNE,22,0.0,0.0,86,0.00,,---,0.61,11.00,VWS V14.00,2013-08-05 18:20:00,
2013-08-05 13:24:00,72.0,67.6,29.86,NNE,22,0.0,0.0,86,0.00,,---,0.61,10.00,VWS V14.00,2013-08-05 18:24:00,
2013-08-05 13:25:00,71.0,66.9,29.86,NNE,22,0.0,0.0,87,0.00,,---,0.61,10.00,VWS V14.00,2013-08-05 18:25:00,
2013-08-05 13:29:00,71.0,66.3,29.86,NNE,22,0.0,0.0,85,0.00,,---,0.61,12.00,VWS V14.00,2013-08-05 18:29:00,
2013-08-05 13:30:00,71.0,66.6,29.86,NNE,22,0.0,0.0,86,0.00,,---,0.61,10.00,VWS V14.00,2013-08-05 18:30:00,
2013-08-05 13:34:00,71.0,66.6,29.86,NNE,22,0.0,0.0,86,0.00,,---,0.61,14.00,VWS V14.00,2013-08-05 18:34:00,
2013-08-05 13:35:00,71.0,66.3,29.86,NNE,22,0.0,0.0,85,0.00,,---,0.61,13.00,VWS V14.00,2013-08-05 18:35:00,
2013-08-05 13:39:00,72.0,67.9,29.86,NNE,22,0.0,0.0,87,0.00,,---,0.61,14.00,VWS V14.00,2013-08-05 18:39:00,
2013-08-05 13:40:00,71.0,66.6,29.86,NNE,22,0.0,0.0,86,0.00,,---,0.61,14.00,VWS V14.00,2013-08-05 18:40:00,
2013-08-05 13:44:00,72.0,67.6,29.86,NNE,22,0.0,0.0,86,0.00,,---,0.61,19.00,VWS V14.00,2013-08-05 18:44:00,
2013-08-05 13:45:00,72.0,67.6,29.86,NNE,22,0.0,0.0,86,0.00,,---,0.61,15.00,VWS V14.00,2013-08-05 18:45:00,
2013-08-05 13:49:00,72.0,67.2,29.86,NNE,22,0.0,0.0,85,0.00,,---,0.61,19.00,VWS V14.00,2013-08-05 18:49:00,
2013-08-05 13:50:00,72.0,67.6,29.86,NNE,22,0.0,0.0,86,0.00,,---,0.61,18.00,VWS V14.00,2013-08-05 18:50:00,
2013-08-05 13:54:00,72.0,67.2,29.86,NNE,22,0.0,0.0,85,0.00,,---,0.61,19.00,VWS V14.00,2013-08-05 18:54:00,
2013-08-05 13:55:00,71.0,66.3,29.86,NNE,22,0.0,0.0,85,0.00,,---,0.61,19.00,VWS V14.00,2013-08-05 18:55:00,
2013-08-05 13:59:00,72.0,67.2,29.86,NNE,22,0.0,0.0,85,0.00,,---,0.61,26.00,VWS V14.00,2013-08-05 18:59:00,
2013-08-05 14:00:00,72.0,67.2,29.86,NNE,22,0.0,0.0,85,0.00,,---,0.61,19.00,VWS V14.00,2013-08-05 19:00:00,
2013-08-05 14:04:00,73.0,68.2,29.86,NNE,22,0.0,0.0,85,0.00,,---,0.61,26.00,VWS V14.00,2013-08-05 19:04:00,
2013-08-05 14:05:00,72.0,67.2,29.86,NNE,22,0.0,0.0,85,0.00,,---,0.61,27.00,VWS V14.00,2013-08-05 19:05:00,
2013-08-05 14:09:00,73.0,67.9,29.86,NNE,22,0.0,0.0,84,0.00,,---,0.61,25.00,VWS V14.00,2013-08-05 19:09:00,
2013-08-05 14:10:00,73.0,68.2,29.86,NNE,22,0.0,0.0,85,0.00,,---,0.61,26.00,VWS V14.00,2013-08-05 19:10:00,
2013-08-05 14:14:00,73.0,67.9,29.85,NNE,22,0.0,0.0,84,0.00,,---,0.61,27.00,VWS V14.00,2013-08-05 19:14:00,
2013-08-05 14:15:00,73.0,67.9,29.86,NNE,22,0.0,0.0,84,0.00,,---,0.61,26.00,VWS V14.00,2013-08-05 19:15:00,
2013-08-05 14:19:00,73.0,67.2,29.85,NNE,22,0.0,0.0,82,0.00,,---,0.61,66.00,VWS V14.00,2013-08-05 19:19:00,
2013-08-05 14:20:00,73.0,67.5,29.85,NNE,22,0.0,0.0,83,0.00,,---,0.61,29.00,VWS V14.00,2013-08-05 19:20:00,
2013-08-05 14:24:00,74.0,68.2,29.85,NNE,22,0.0,0.0,82,0.00,,---,0.61,36.00,VWS V14.00,2013-08-05 19:24:00,
2013-08-05 14:25:00,73.0,67.2,29.85,NNE,22,0.0,0.0,82,0.00,,---,0.61,90.00,VWS V14.00,2013-08-05 19:25:00,
2013-08-05 14:29:00,75.0,69.1,29.84,NNE,22,0.0,0.0,82,0.00,,---,0.61,31.00,VWS V14.00,2013-08-05 19:29:00,
2013-08-05 14:30:00,74.0,68.2,29.85,NNE,22,0.0,0.0,82,0.00,,---,0.61,32.00,VWS V14.00,2013-08-05 19:30:00,
2013-08-05 14:34:00,74.0,67.8,29.84,NNE,22,0.0,0.0,81,0.00,,---,0.61,37.00,VWS V14.00,2013-08-05 19:34:00,
2013-08-05 14:35:00,74.0,67.8,29.84,NNE,22,0.0,0.0,81,0.00,,---,0.61,35.00,VWS V14.00,2013-08-05 19:35:00,
2013-08-05 14:39:00,75.0,68.1,29.84,NNE,22,0.0,0.0,79,0.00,,---,0.61,43.00,VWS V14.00,2013-08-05 19:39:00,
2013-08-05 14:40:00,75.0,68.4,29.84,NNE,22,0.0,0.0,80,0.00,,---,0.61,35.00,VWS V14.00,2013-08-05 19:40:00,
2013-08-05 14:44:00,75.0,68.4,29.84,NNE,22,0.0,0.0,80,0.00,,---,0.61,65.00,VWS V14.00,2013-08-05 19:44:00,
2013-08-05 14:45:00,75.0,68.1,29.84,NNE,22,0.0,0.0,79,0.00,,---,0.61,38.00,VWS V14.00,2013-08-05 19:45:00,
2013-08-05 14:49:00,76.0,68.7,29.83,NNE,22,0.0,0.0,78,0.00,,---,0.61,65.00,VWS V14.00,2013-08-05 19:49:00,
2013-08-05 14:50:00,75.0,68.1,29.83,NNE,22,0.0,0.0,79,0.00,,---,0.61,55.00,VWS V14.00,2013-08-05 19:50:00,
2013-08-05 14:54:00,76.0,68.3,29.83,NNE,22,0.0,0.0,77,0.00,,---,0.61,60.00,VWS V14.00,2013-08-05 19:54:00,
2013-08-05 14:55:00,76.0,68.7,29.83,NNE,22,0.0,0.0,78,0.00,,---,0.61,63.00,VWS V14.00,2013-08-05 19:55:00,
2013-08-05 14:59:00,76.0,67.1,29.82,NNE,22,0.0,0.0,74,0.00,,---,0.61,62.00,VWS V14.00,2013-08-05 19:59:00,
2013-08-05 15:00:00,76.0,68.7,29.83,NNE,22,0.0,0.0,78,0.00,,---,0.61,60.00,VWS V14.00,2013-08-05 20:00:00,
2013-08-05 15:04:00,77.0,68.9,29.82,NNE,22,0.0,0.0,76,0.00,,---,0.61,13.00,VWS V14.00,2013-08-05 20:04:00,
2013-08-05 15:05:00,76.0,67.9,29.82,NNE,22,0.0,0.0,76,0.00,,---,0.61,66.00,VWS V14.00,2013-08-05 20:05:00,
2013-08-05 15:09:00,76.0,67.5,29.82,NNE,22,0.0,0.0,75,0.00,,---,0.61,20.00,VWS V14.00,2013-08-05 20:09:00,
2013-08-05 15:10:00,76.0,67.9,29.82,NNE,22,0.0,0.0,76,0.00,,---,0.61,13.00,VWS V14.00,2013-08-05 20:10:00,
2013-08-05 15:14:00,76.0,67.9,29.82,NNE,22,0.0,0.0,76,0.00,,---,0.61,70.00,VWS V14.00,2013-08-05 20:14:00,
2013-08-05 15:15:00,76.0,67.9,29.82,NNE,22,0.0,0.0,76,0.00,,---,0.61,23.00,VWS V14.00,2013-08-05 20:15:00,
2013-08-05 15:19:00,76.0,67.5,29.82,NNE,22,0.0,0.0,75,0.00,,---,0.61,66.00,VWS V14.00,2013-08-05 20:19:00,
2013-08-05 15:20:00,75.0,66.9,29.82,NNE,22,0.0,0.0,76,0.00,,---,0.61,71.00,VWS V14.00,2013-08-05 20:20:00,
2013-08-05 15:24:00,77.0,68.9,29.82,NNE,22,0.0,0.0,76,0.00,,---,0.61,67.00,VWS V14.00,2013-08-05 20:24:00,
2013-08-05 15:25:00,76.0,67.5,29.82,NNE,22,0.0,0.0,75,0.00,,---,0.61,67.00,VWS V14.00,2013-08-05 20:25:00,
2013-08-05 15:29:00,77.0,67.7,29.82,NNE,22,0.0,0.0,73,0.00,,---,0.61,18.00,VWS V14.00,2013-08-05 20:29:00,
2013-08-05 15:30:00,77.0,68.5,29.82,NNE,22,0.0,0.0,75,0.00,,---,0.61,62.00,VWS V14.00,2013-08-05 20:30:00,
2013-08-05 15:34:00,77.0,67.3,29.82,NNE,22,0.0,0.0,72,0.00,,---,0.61,57.00,VWS V14.00,2013-08-05 20:34:00,
2013-08-05 15:35:00,77.0,67.7,29.82,NNE,22,0.0,0.0,73,0.00,,---,0.61,61.00,VWS V14.00,2013-08-05 20:35:00,
2013-08-05 15:39:00,77.0,67.3,29.82,NNE,22,0.0,0.0,72,0.00,,---,0.61,23.00,VWS V14.00,2013-08-05 20:39:00,
2013-08-05 15:40:00,77.0,67.3,29.82,NNE,22,0.0,0.0,72,0.00,,---,0.61,45.00,VWS V14.00,2013-08-05 20:40:00,
2013-08-05 15:44:00,78.0,68.2,29.82,NNE,22,0.0,0.0,72,0.00,,---,0.61,63.00,VWS V14.00,2013-08-05 20:44:00,
2013-08-05 15:45:00,77.0,67.3,29.82,NNE,22,0.0,0.0,72,0.00,,---,0.61,64.00,VWS V14.00,2013-08-05 20:45:00,
2013-08-05 15:49:00,79.0,68.8,29.82,NNE,22,0.0,0.0,71,0.00,,---,0.61,54.00,VWS V14.00,2013-08-05 20:49:00,
2013-08-05 15:50:00,78.0,68.7,29.82,NNE,22,0.0,0.0,73,0.00,,---,0.61,64.00,VWS V14.00,2013-08-05 20:50:00,
2013-08-05 15:54:00,79.0,67.6,29.82,NNE,22,0.0,0.0,68,0.00,,---,0.61,57.00,VWS V14.00,2013-08-05 20:54:00,
2013-08-05 15:55:00,80.0,69.8,29.82,NNE,22,0.0,0.0,71,0.00,,---,0.61,46.00,VWS V14.00,2013-08-05 20:55:00,
2013-08-05 15:59:00,78.0,67.0,29.82,NNE,22,0.0,0.0,69,0.00,,---,0.61,15.00,VWS V14.00,2013-08-05 20:59:00,
2013-08-05 16:00:00,79.0,68.0,29.82,NNE,22,0.0,0.0,69,0.00,,---,0.61,57.00,VWS V14.00,2013-08-05 21:00:00,
2013-08-05 16:04:00,78.0,67.4,29.82,NNE,22,0.0,0.0,70,0.00,,---,0.61,18.00,VWS V14.00,2013-08-05 21:04:00,
2013-08-05 16:05:00,78.0,67.0,29.82,NNE,22,0.0,0.0,69,0.00,,---,0.61,16.00,VWS V14.00,2013-08-05 21:05:00,
2013-08-05 16:09:00,78.0,67.4,29.82,NNE,22,0.0,0.0,70,0.00,,---,0.61,58.00,VWS V14.00,2013-08-05 21:09:00,
2013-08-05 16:10:00,78.0,67.8,29.82,NNE,22,0.0,0.0,71,0.00,,---,0.61,57.00,VWS V14.00,2013-08-05 21:10:00,
2013-08-05 16:14:00,80.0,69.3,29.82,NNE,22,0.0,0.0,70,0.00,,---,0.61,47.00,VWS V14.00,2013-08-05 21:14:00,
2013-08-05 16:15:00,78.0,67.4,29.82,NNE,22,0.0,0.0,70,0.00,,---,0.61,57.00,VWS V14.00,2013-08-05 21:15:00,
2013-08-05 16:19:00,79.0,67.6,29.82,NNE,22,0.0,0.0,68,0.00,,---,0.61,11.00,VWS V14.00,2013-08-05 21:19:00,
2013-08-05 16:20:00,79.0,67.6,29.82,NNE,22,0.0,0.0,68,0.00,,---,0.61,36.00,VWS V14.00,2013-08-05 21:20:00,
2013-08-05 16:24:00,79.0,68.4,29.82,NNE,22,0.0,0.0,70,0.00,,---,0.61,10.00,VWS V14.00,2013-08-05 21:24:00,
2013-08-05 16:25:00,80.0,68.9,29.81,NNE,22,0.0,0.0,69,0.00,,---,0.61,11.00,VWS V14.00,2013-08-05 21:25:00,
2013-08-05 16:29:00,79.0,68.0,29.82,NNE,22,0.0,0.0,69,0.00,,---,0.61,12.00,VWS V14.00,2013-08-05 21:29:00,
2013-08-05 16:30:00,79.0,67.6,29.82,NNE,22,0.0,0.0,68,0.00,,---,0.61,10.00,VWS V14.00,2013-08-05 21:30:00,
2013-08-05 16:34:00,79.0,68.4,29.82,NNE,22,0.0,0.0,70,0.00,,---,0.61,37.00,VWS V14.00,2013-08-05 21:34:00,
2013-08-05 16:35:00,78.0,66.6,29.82,NNE,22,0.0,0.0,68,0.00,,---,0.61,13.00,VWS V14.00,2013-08-05 21:35:00,
2013-08-05 16:39:00,79.0,68.0,29.82,NNE,22,0.0,0.0,69,0.00,,---,0.61,47.00,VWS V14.00,2013-08-05 21:39:00,
2013-08-05 16:40:00,79.0,68.8,29.82,NNE,22,0.0,0.0,71,0.00,,---,0.61,43.00,VWS V14.00,2013-08-05 21:40:00,
2013-08-05 16:44:00,80.0,68.1,29.81,NNE,22,0.0,0.0,67,0.00,,---,0.61,50.00,VWS V14.00,2013-08-05 21:44:00,
2013-08-05 16:45:00,79.0,67.6,29.82,NNE,22,0.0,0.0,68,0.00,,---,0.61,40.00,VWS V14.00,2013-08-05 21:45:00,
2013-08-05 16:49:00,79.0,67.6,29.81,NNE,22,0.0,0.0,68,0.00,,---,0.61,46.00,VWS V14.00,2013-08-05 21:49:00,
2013-08-05 16:50:00,80.0,68.1,29.82,NNE,22,0.0,0.0,67,0.00,,---,0.61,50.00,VWS V14.00,2013-08-05 21:50:00,
2013-08-05 16:54:00,79.0,67.6,29.81,NNE,22,0.0,0.0,68,0.00,,---,0.61,44.00,VWS V14.00,2013-08-05 21:54:00,
2013-08-05 16:55:00,79.0,67.6,29.81,NNE,22,0.0,0.0,68,0.00,,---,0.61,46.00,VWS V14.00,2013-08-05 21:55:00,
2013-08-05 16:59:00,79.0,67.6,29.81,NNE,22,0.0,0.0,68,0.00,,---,0.61,35.00,VWS V14.00,2013-08-05 21:59:00,
2013-08-05 17:00:00,79.0,68.0,29.81,NNE,22,0.0,0.0,69,0.00,,---,0.61,44.00,VWS V14.00,2013-08-05 22:00:00,
2013-08-05 17:04:00,78.0,67.0,29.81,NNE,22,0.0,0.0,69,0.00,,---,0.61,43.00,VWS V14.00,2013-08-05 22:04:00,
2013-08-05 17:05:00,79.0,67.6,29.81,NNE,22,0.0,0.0,68,0.00,,---,0.61,42.00,VWS V14.00,2013-08-05 22:05:00,
2013-08-05 17:09:00,78.0,67.4,29.81,NNE,22,0.0,0.0,70,0.00,,---,0.61,13.00,VWS V14.00,2013-08-05 22:09:00,
2013-08-05 17:10:00,78.0,67.0,29.81,NNE,22,0.0,0.0,69,0.00,,---,0.61,13.00,VWS V14.00,2013-08-05 22:10:00,
2013-08-05 17:14:00,79.0,68.4,29.81,NNE,22,0.0,0.0,70,0.00,,---,0.61,37.00,VWS V14.00,2013-08-05 22:14:00,
2013-08-05 17:15:00,78.0,67.4,29.81,NNE,22,0.0,0.0,70,0.00,,---,0.61,28.00,VWS V14.00,2013-08-05 22:15:00,
2013-08-05 17:19:00,79.0,68.4,29.81,NNE,22,0.0,0.0,70,0.00,,---,0.61,22.00,VWS V14.00,2013-08-05 22:19:00,
2013-08-05 17:20:00,79.0,68.8,29.81,NNE,22,0.0,0.0,71,0.00,,---,0.61,13.00,VWS V14.00,2013-08-05 22:20:00,
2013-08-05 17:24:00,79.0,68.0,29.81,NNE,22,0.0,0.0,69,0.00,,---,0.61,36.00,VWS V14.00,2013-08-05 22:24:00,
2013-08-05 17:25:00,79.0,68.0,29.81,NNE,22,0.0,0.0,69,0.00,,---,0.61,36.00,VWS V14.00,2013-08-05 22:25:00,
2013-08-05 17:29:00,79.0,67.1,29.81,NNE,22,0.0,0.0,67,0.00,,---,0.61,35.00,VWS V14.00,2013-08-05 22:29:00,
2013-08-05 17:30:00,79.0,68.4,29.81,NNE,22,0.0,0.0,70,0.00,,---,0.61,35.00,VWS V14.00,2013-08-05 22:30:00,
2013-08-05 17:34:00,79.0,67.1,29.81,NNE,22,0.0,0.0,67,0.00,,---,0.61,33.00,VWS V14.00,2013-08-05 22:34:00,
2013-08-05 17:35:00,79.0,68.0,29.81,NNE,22,0.0,0.0,69,0.00,,---,0.61,35.00,VWS V14.00,2013-08-05 22:35:00,
2013-08-05 17:39:00,79.0,67.1,29.81,NNE,22,0.0,0.0,67,0.00,,---,0.61,23.00,VWS V14.00,2013-08-05 22:39:00,
2013-08-05 17:40:00,79.0,67.1,29.81,NNE,22,0.0,0.0,67,0.00,,---,0.61,33.00,VWS V14.00,2013-08-05 22:40:00,
2013-08-05 17:44:00,79.0,68.0,29.81,NNE,22,0.0,0.0,69,0.00,,---,0.61,6.00,VWS V14.00,2013-08-05 22:44:00,
2013-08-05 17:45:00,79.0,67.1,29.81,NNE,22,0.0,0.0,67,0.00,,---,0.61,7.00,VWS V14.00,2013-08-05 22:45:00,
2013-08-05 17:49:00,78.0,67.4,29.81,NNE,22,0.0,0.0,70,0.00,,---,0.61,8.00,VWS V14.00,2013-08-05 22:49:00,
2013-08-05 17:50:00,79.0,68.0,29.81,NNE,22,0.0,0.0,69,0.00,,---,0.61,6.00,VWS V14.00,2013-08-05 22:50:00,
2013-08-05 17:54:00,78.0,67.4,29.81,NNE,22,0.0,0.0,70,0.00,,---,0.61,8.00,VWS V14.00,2013-08-05 22:54:00,
2013-08-05 17:55:00,78.0,67.4,29.81,NNE,22,0.0,0.0,70,0.00,,---,0.61,8.00,VWS V14.00,2013-08-05 22:55:00,
2013-08-05 17:59:00,78.0,67.4,29.81,NNE,22,0.0,0.0,70,0.00,,---,0.61,10.00,VWS V14.00,2013-08-05 22:59:00,
2013-08-05 18:00:00,78.0,67.4,29.81,NNE,22,0.0,0.0,70,0.00,,---,0.61,9.00,VWS V14.00,2013-08-05 23:00:00,
2013-08-05 18:04:00,78.0,67.4,29.80,NNE,22,0.0,0.0,70,0.00,,---,0.61,10.00,VWS V14.00,2013-08-05 23:04:00,
2013-08-05 18:05:00,78.0,67.4,29.81,NNE,22,0.0,0.0,70,0.00,,---,0.61,9.00,VWS V14.00,2013-08-05 23:05:00,
2013-08-05 18:09:00,79.0,68.0,29.80,NNE,22,0.0,0.0,69,0.00,,---,0.61,29.00,VWS V14.00,2013-08-05 23:09:00,
2013-08-05 18:10:00,78.0,67.4,29.80,NNE,22,0.0,0.0,70,0.00,,---,0.61,19.00,VWS V14.00,2013-08-05 23:10:00,
2013-08-05 18:14:00,79.0,66.7,29.80,NNE,22,0.0,0.0,66,0.00,,---,0.61,26.00,VWS V14.00,2013-08-05 23:14:00,
2013-08-05 18:15:00,79.0,68.0,29.80,NNE,22,0.0,0.0,69,0.00,,---,0.61,28.00,VWS V14.00,2013-08-05 23:15:00,
2013-08-05 18:19:00,80.0,66.3,29.79,NNE,22,0.0,0.0,63,0.00,,---,0.61,24.00,VWS V14.00,2013-08-05 23:19:00,
2013-08-05 18:20:00,80.0,67.2,29.80,NNE,22,0.0,0.0,65,0.00,,---,0.61,25.00,VWS V14.00,2013-08-05 23:20:00,
2013-08-05 18:24:00,80.0,65.4,29.79,NNE,22,0.0,0.0,61,0.00,,---,0.61,23.00,VWS V14.00,2013-08-05 23:24:00,
2013-08-05 18:25:00,80.0,66.3,29.79,NNE,22,0.0,0.0,63,0.00,,---,0.61,24.00,VWS V14.00,2013-08-05 23:25:00,
2013-08-05 18:29:00,80.0,64.4,29.79,NNE,22,0.0,0.0,59,0.00,,---,0.61,22.00,VWS V14.00,2013-08-05 23:29:00,
2013-08-05 18:30:00,80.0,64.9,29.80,NNE,22,0.0,0.0,60,0.00,,---,0.61,22.00,VWS V14.00,2013-08-05 23:30:00,
2013-08-05 18:34:00,81.0,65.8,29.79,NNE,22,0.0,0.0,60,0.00,,---,0.61,21.00,VWS V14.00,2013-08-05 23:34:00,
2013-08-05 18:35:00,80.0,64.4,29.79,NNE,22,0.0,0.0,59,0.00,,---,0.61,21.00,VWS V14.00,2013-08-05 23:35:00,
2013-08-05 18:39:00,80.0,65.4,29.79,NNE,22,0.0,0.0,61,0.00,,---,0.61,18.00,VWS V14.00,2013-08-05 23:39:00,
2013-08-05 18:40:00,81.0,65.8,29.79,NNE,22,0.0,0.0,60,0.00,,---,0.61,20.00,VWS V14.00,2013-08-05 23:40:00,
2013-08-05 18:44:00,80.0,65.8,29.79,NNE,22,0.0,0.0,62,0.00,,---,0.61,19.00,VWS V14.00,2013-08-05 23:44:00,
2013-08-05 18:45:00,80.0,65.4,29.79,NNE,22,0.0,0.0,61,0.00,,---,0.61,19.00,VWS V14.00,2013-08-05 23:45:00,
2013-08-05 18:49:00,80.0,64.4,29.78,NNE,22,0.0,0.0,59,0.00,,---,0.61,18.00,VWS V14.00,2013-08-05 23:49:00,
2013-08-05 18:50:00,80.0,65.4,29.78,NNE,22,0.0,0.0,61,0.00,,---,0.61,19.00,VWS V14.00,2013-08-05 23:50:00,
2013-08-05 18:54:00,80.0,64.9,29.78,NNE,22,0.0,0.0,60,0.00,,---,0.61,17.00,VWS V14.00,2013-08-05 23:54:00,
2013-08-05 18:55:00,80.0,64.9,29.78,NNE,22,0.0,0.0,60,0.00,,---,0.61,18.00,VWS V14.00,2013-08-05 23:55:00,
2013-08-05 18:59:00,80.0,64.4,29.78,NNE,22,0.0,0.0,59,0.00,,---,0.61,16.00,VWS V14.00,2013-08-05 23:59:00,
2013-08-05 19:00:00,80.0,64.9,29.78,NNE,22,0.0,0.0,60,0.00,,---,0.61,17.00,VWS V14.00,2013-08-06 00:00:00,
2013-08-05 19:04:00,80.0,64.9,29.78,NNE,22,0.0,0.0,60,0.00,,---,0.61,15.00,VWS V14.00,2013-08-06 00:04:00,
2013-08-05 19:05:00,80.0,64.4,29.78,NNE,22,0.0,0.0,59,0.00,,---,0.61,16.00,VWS V14.00,2013-08-06 00:05:00,
2013-08-05 19:09:00,80.0,65.4,29.78,NNE,22,0.0,0.0,61,0.00,,---,0.61,14.00,VWS V14.00,2013-08-06 00:09:00,
2013-08-05 19:10:00,80.0,65.4,29.78,NNE,22,0.0,0.0,61,0.00,,---,0.61,12.00,VWS V14.00,2013-08-06 00:10:00,
2013-08-05 19:14:00,80.0,65.4,29.78,NNE,22,0.0,0.0,61,0.00,,---,0.61,14.00,VWS V14.00,2013-08-06 00:14:00,
2013-08-05 19:15:00,80.0,64.9,29.78,NNE,22,0.0,0.0,60,0.00,,---,0.61,14.00,VWS V14.00,2013-08-06 00:15:00,
2013-08-05 19:19:00,80.0,65.8,29.78,NNE,22,0.0,0.0,62,0.00,,---,0.61,13.00,VWS V14.00,2013-08-06 00:19:00,
2013-08-05 19:20:00,80.0,65.4,29.78,NNE,22,0.0,0.0,61,0.00,,---,0.61,14.00,VWS V14.00,2013-08-06 00:20:00,
2013-08-05 19:24:00,79.0,65.3,29.78,NNE,22,0.0,0.0,63,0.00,,---,0.61,10.00,VWS V14.00,2013-08-06 00:24:00,
2013-08-05 19:25:00,80.0,65.8,29.78,NNE,22,0.0,0.0,62,0.00,,---,0.61,4.00,VWS V14.00,2013-08-06 00:25:00,
2013-08-05 19:29:00,79.0,65.3,29.78,NNE,22,0.0,0.0,63,0.00,,---,0.61,11.00,VWS V14.00,2013-08-06 00:29:00,
2013-08-05 19:30:00,79.0,65.3,29.78,NNE,22,0.0,0.0,63,0.00,,---,0.61,11.00,VWS V14.00,2013-08-06 00:30:00,
2013-08-05 19:34:00,79.0,65.8,29.78,NNE,22,0.0,0.0,64,0.00,,---,0.61,10.00,VWS V14.00,2013-08-06 00:34:00,
2013-08-05 19:35:00,79.0,65.8,29.78,NNE,22,0.0,0.0,64,0.00,,---,0.61,10.00,VWS V14.00,2013-08-06 00:35:00,
2013-08-05 19:39:00,79.0,65.8,29.78,NNE,22,0.0,0.0,64,0.00,,---,0.61,9.00,VWS V14.00,2013-08-06 00:39:00,
2013-08-05 19:40:00,79.0,65.8,29.78,NNE,22,0.0,0.0,64,0.00,,---,0.61,10.00,VWS V14.00,2013-08-06 00:40:00,
2013-08-05 19:44:00,79.0,66.2,29.78,NNE,22,0.0,0.0,65,0.00,,---,0.61,8.00,VWS V14.00,2013-08-06 00:44:00,
2013-08-05 19:45:00,79.0,65.8,29.78,NNE,22,0.0,0.0,64,0.00,,---,0.61,9.00,VWS V14.00,2013-08-06 00:45:00,
2013-08-05 19:49:00,79.0,66.2,29.77,NNE,22,0.0,0.0,65,0.00,,---,0.61,8.00,VWS V14.00,2013-08-06 00:49:00,
2013-08-05 19:50:00,79.0,66.2,29.78,NNE,22,0.0,0.0,65,0.00,,---,0.61,8.00,VWS V14.00,2013-08-06 00:50:00,
2013-08-05 19:54:00,79.0,66.2,29.77,NNE,22,0.0,0.0,65,0.00,,---,0.61,6.00,VWS V14.00,2013-08-06 00:54:00,
2013-08-05 19:55:00,79.0,65.8,29.77,NNE,22,0.0,0.0,64,0.00,,---,0.61,8.00,VWS V14.00,2013-08-06 00:55:00,
2013-08-05 19:59:00,79.0,66.2,29.77,NNE,22,0.0,0.0,65,0.00,,---,0.61,6.00,VWS V14.00,2013-08-06 00:59:00,
2013-08-05 20:00:00,79.0,66.2,29.77,NNE,22,0.0,0.0,65,0.00,,---,0.61,6.00,VWS V14.00,2013-08-06 01:00:00,
2013-08-05 20:04:00,79.0,66.7,29.77,NNE,22,0.0,0.0,66,0.00,,---,0.61,5.00,VWS V14.00,2013-08-06 01:04:00,
2013-08-05 20:05:00,79.0,66.7,29.77,NNE,22,0.0,0.0,66,0.00,,---,0.61,5.00,VWS V14.00,2013-08-06 01:05:00,
2013-08-05 20:09:00,78.0,66.2,29.77,NNE,22,0.0,0.0,67,0.00,,---,0.61,4.00,VWS V14.00,2013-08-06 01:09:00,
2013-08-05 20:10:00,78.0,65.7,29.77,NNE,22,0.0,0.0,66,0.00,,---,0.61,5.00,VWS V14.00,2013-08-06 01:10:00,
2013-08-05 20:14:00,78.0,66.2,29.77,NNE,22,0.0,0.0,67,0.00,,---,0.61,3.00,VWS V14.00,2013-08-06 01:14:00,
2013-08-05 20:15:00,78.0,66.2,29.77,NNE,22,0.0,0.0,67,0.00,,---,0.61,4.00,VWS V14.00,2013-08-06 01:15:00,
2013-08-05 20:19:00,78.0,66.6,29.77,NNE,22,0.0,0.0,68,0.00,,---,0.61,3.00,VWS V14.00,2013-08-06 01:19:00,
2013-08-05 20:20:00,78.0,66.6,29.77,NNE,22,0.0,0.0,68,0.00,,---,0.61,3.00,VWS V14.00,2013-08-06 01:20:00,
2013-08-05 20:24:00,78.0,67.0,29.77,NNE,22,0.0,0.0,69,0.00,,---,0.61,2.00,VWS V14.00,2013-08-06 01:24:00,
2013-08-05 20:25:00,78.0,66.6,29.77,NNE,22,0.0,0.0,68,0.00,,---,0.61,3.00,VWS V14.00,2013-08-06 01:25:00,
2013-08-05 20:28:00,77.0,66.1,29.77,NNE,22,0.0,0.0,69,0.00,,---,0.61,1.00,VWS V14.00,2013-08-06 01:28:00,
2013-08-05 20:30:00,77.0,66.1,29.77,NNE,22,0.0,0.0,69,0.00,,---,0.61,2.00,VWS V14.00,2013-08-06 01:30:00,
2013-08-05 20:33:00,77.0,66.5,29.77,NNE,22,0.0,0.0,70,0.00,,---,0.61,1.00,VWS V14.00,2013-08-06 01:33:00,
2013-08-05 20:35:00,77.0,66.5,29.77,NNE,22,0.0,0.0,70,0.00,,---,0.61,1.00,VWS V14.00,2013-08-06 01:35:00,
2013-08-05 20:38:00,77.0,66.9,29.77,NNE,22,0.0,0.0,71,0.00,,---,0.61,0.00,VWS V14.00,2013-08-06 01:38:00,
2013-08-05 20:40:00,77.0,66.5,29.77,NNE,22,0.0,0.0,70,0.00,,---,0.61,1.00,VWS V14.00,2013-08-06 01:40:00,
2013-08-05 20:43:00,77.0,66.9,29.77,NNE,22,0.0,0.0,71,0.00,,---,0.61,0.00,VWS V14.00,2013-08-06 01:43:00,
2013-08-05 20:45:00,77.0,66.9,29.77,NNE,22,0.0,0.0,71,0.00,,---,0.61,0.00,VWS V14.00,2013-08-06 01:45:00,
2013-08-05 20:48:00,76.0,65.9,29.78,NNE,22,0.0,0.0,71,0.00,,---,0.61,0.00,VWS V14.00,2013-08-06 01:48:00,
2013-08-05 20:50:00,77.0,67.3,29.78,NNE,22,0.0,0.0,72,0.00,,---,0.61,0.00,VWS V14.00,2013-08-06 01:50:00,
2013-08-05 20:53:00,76.0,65.5,29.78,NNE,22,0.0,0.0,70,0.00,,---,0.61,0.00,VWS V14.00,2013-08-06 01:53:00,
2013-08-05 20:55:00,76.0,65.9,29.78,NNE,22,0.0,0.0,71,0.00,,---,0.61,0.00,VWS V14.00,2013-08-06 01:55:00,
2013-08-05 20:58:00,76.0,65.9,29.78,NNE,22,0.0,0.0,71,0.00,,---,0.61,0.00,VWS V14.00,2013-08-06 01:58:00,
2013-08-05 21:00:00,76.0,65.9,29.78,NNE,22,0.0,0.0,71,0.00,,---,0.61,0.00,VWS V14.00,2013-08-06 02:00:00,
2013-08-05 21:03:00,76.0,65.1,29.78,NNE,22,0.0,0.0,69,0.00,,---,0.61,0.00,VWS V14.00,2013-08-06 02:03:00,
2013-08-05 21:05:00,76.0,65.9,29.78,NNE,22,0.0,0.0,71,0.00,,---,0.61,0.00,VWS V14.00,2013-08-06 02:05:00,
2013-08-05 21:08:00,76.0,65.5,29.78,NNE,22,0.0,0.0,70,0.00,,---,0.61,0.00,VWS V14.00,2013-08-06 02:08:00,
2013-08-05 21:10:00,76.0,65.1,29.78,NNE,22,0.0,0.0,69,0.00,,---,0.61,0.00,VWS V14.00,2013-08-06 02:10:00,
2013-08-05 21:13:00,76.0,65.5,29.78,NNE,22,0.0,0.0,70,0.00,,---,0.61,0.00,VWS V14.00,2013-08-06 02:13:00,
2013-08-05 21:15:00,76.0,65.5,29.79,NNE,22,0.0,0.0,70,0.00,,---,0.61,0.00,VWS V14.00,2013-08-06 02:15:00,
2013-08-05 21:18:00,75.0,65.0,29.79,NNE,22,0.0,0.0,71,0.00,,---,0.61,0.00,VWS V14.00,2013-08-06 02:18:00,
2013-08-05 21:20:00,76.0,65.5,29.79,NNE,22,0.0,0.0,70,0.00,,---,0.61,0.00,VWS V14.00,2013-08-06 02:20:00,
2013-08-05 21:23:00,75.0,65.0,29.79,NNE,22,0.0,0.0,71,0.00,,---,0.61,0.00,VWS V14.00,2013-08-06 02:23:00,
2013-08-05 21:25:00,75.0,65.0,29.79,NNE,22,0.0,0.0,71,0.00,,---,0.61,0.00,VWS V14.00,2013-08-06 02:25:00,
2013-08-05 21:28:00,75.0,65.4,29.79,NNE,22,0.0,0.0,72,0.00,,---,0.61,0.00,VWS V14.00,2013-08-06 02:28:00,
2013-08-05 21:30:00,75.0,65.0,29.79,NNE,22,0.0,0.0,71,0.00,,---,0.61,0.00,VWS V14.00,2013-08-06 02:30:00,
2013-08-05 21:33:00,75.0,65.8,29.79,NNE,22,0.0,0.0,73,0.00,,---,0.61,0.00,VWS V14.00,2013-08-06 02:33:00,
2013-08-05 21:35:00,75.0,65.4,29.79,NNE,22,0.0,0.0,72,0.00,,---,0.61,0.00,VWS V14.00,2013-08-06 02:35:00,
2013-08-05 21:38:00,74.0,64.8,29.79,NNE,22,0.0,0.0,73,0.00,,---,0.61,0.00,VWS V14.00,2013-08-06 02:38:00,
2013-08-05 21:40:00,74.0,64.8,29.79,NNE,22,0.0,0.0,73,0.00,,---,0.61,0.00,VWS V14.00,2013-08-06 02:40:00,
2013-08-05 21:43:00,74.0,65.2,29.79,NNE,22,0.0,0.0,74,0.00,,---,0.61,0.00,VWS V14.00,2013-08-06 02:43:00,
2013-08-05 21:45:00,74.0,65.2,29.79,NNE,22,0.0,0.0,74,0.00,,---,0.61,0.00,VWS V14.00,2013-08-06 02:45:00,
2013-08-05 21:48:00,74.0,65.2,29.79,NNE,22,0.0,0.0,74,0.00,,---,0.61,0.00,VWS V14.00,2013-08-06 02:48:00,
2013-08-05 21:50:00,74.0,65.2,29.80,NNE,22,0.0,0.0,74,0.00,,---,0.61,0.00,VWS V14.00,2013-08-06 02:50:00,
2013-08-05 21:53:00,74.0,65.6,29.79,NNE,22,0.0,0.0,75,0.00,,---,0.61,0.00,VWS V14.00,2013-08-06 02:53:00,
2013-08-05 21:55:00,74.0,65.2,29.79,NNE,22,0.0,0.0,74,0.00,,---,0.61,0.00,VWS V14.00,2013-08-06 02:55:00,
2013-08-05 21:58:00,74.0,65.6,29.79,NNE,22,0.0,0.0,75,0.00,,---,0.61,0.00,VWS V14.00,2013-08-06 02:58:00,
2013-08-05 22:00:00,74.0,65.6,29.79,NNE,22,0.0,0.0,75,0.00,,---,0.61,0.00,VWS V14.00,2013-08-06 03:00:00,
2013-08-05 22:03:00,73.0,65.0,29.80,NNE,22,0.0,0.0,76,0.00,,---,0.61,0.00,VWS V14.00,2013-08-06 03:03:00,
2013-08-05 22:05:00,74.0,65.6,29.79,NNE,22,0.0,0.0,75,0.00,,---,0.61,0.00,VWS V14.00,2013-08-06 03:05:00,
2013-08-05 22:08:00,73.0,65.0,29.79,NNE,22,0.0,0.0,76,0.00,,---,0.61,0.00,VWS V14.00,2013-08-06 03:08:00,
2013-08-05 22:10:00,73.0,65.0,29.79,NNE,22,0.0,0.0,76,0.00,,---,0.61,0.00,VWS V14.00,2013-08-06 03:10:00,
2013-08-05 22:13:00,73.0,65.0,29.79,NNE,22,0.0,0.0,76,0.00,,---,0.61,0.00,VWS V14.00,2013-08-06 03:13:00,
2013-08-05 22:15:00,73.0,65.0,29.79,NNE,22,0.0,0.0,76,0.00,,---,0.61,0.00,VWS V14.00,2013-08-06 03:15:00,
2013-08-05 22:18:00,73.0,65.4,29.80,NNE,22,0.0,0.0,77,0.00,,---,0.61,0.00,VWS V14.00,2013-08-06 03:18:00,
2013-08-05 22:20:00,73.0,65.0,29.80,NNE,22,0.0,0.0,76,0.00,,---,0.61,0.00,VWS V14.00,2013-08-06 03:20:00,
2013-08-05 22:23:00,73.0,65.4,29.80,NNE,22,0.0,0.0,77,0.00,,---,0.61,0.00,VWS V14.00,2013-08-06 03:23:00,
2013-08-05 22:25:00,73.0,65.4,29.80,NNE,22,0.0,0.0,77,0.00,,---,0.61,0.00,VWS V14.00,2013-08-06 03:25:00,
2013-08-05 22:28:00,72.0,64.4,29.80,NNE,22,0.0,0.0,77,0.00,,---,0.61,0.00,VWS V14.00,2013-08-06 03:28:00,
2013-08-05 22:30:00,72.0,64.4,29.80,NNE,22,0.0,0.0,77,0.00,,---,0.61,0.00,VWS V14.00,2013-08-06 03:30:00,
2013-08-05 22:33:00,72.0,64.4,29.81,NNE,22,0.0,0.0,77,0.00,,---,0.61,0.00,VWS V14.00,2013-08-06 03:33:00,
2013-08-05 22:35:00,72.0,64.4,29.81,NNE,22,0.0,0.0,77,0.00,,---,0.61,0.00,VWS V14.00,2013-08-06 03:35:00,
2013-08-05 22:38:00,72.0,64.8,29.81,NNE,22,0.0,0.0,78,0.00,,---,0.61,0.00,VWS V14.00,2013-08-06 03:38:00,
2013-08-05 22:40:00,72.0,64.8,29.81,NNE,22,0.0,0.0,78,0.00,,---,0.61,0.00,VWS V14.00,2013-08-06 03:40:00,
2013-08-05 22:43:00,71.0,64.2,29.82,NNE,22,0.0,0.0,79,0.00,,---,0.61,0.00,VWS V14.00,2013-08-06 03:43:00,
2013-08-05 22:45:00,72.0,64.8,29.82,NNE,22,0.0,0.0,78,0.00,,---,0.61,0.00,VWS V14.00,2013-08-06 03:45:00,
2013-08-05 22:48:00,71.0,64.5,29.82,NNE,22,0.0,0.0,80,0.00,,---,0.61,0.00,VWS V14.00,2013-08-06 03:48:00,
2013-08-05 22:50:00,71.0,64.2,29.82,NNE,22,0.0,0.0,79,0.00,,---,0.61,0.00,VWS V14.00,2013-08-06 03:50:00,
2013-08-05 22:53:00,71.0,64.5,29.82,NNE,22,0.0,0.0,80,0.00,,---,0.61,0.00,VWS V14.00,2013-08-06 03:53:00,
2013-08-05 22:55:00,71.0,64.5,29.82,NNE,22,0.0,0.0,80,0.00,,---,0.61,0.00,VWS V14.00,2013-08-06 03:55:00,
2013-08-05 22:58:00,71.0,64.5,29.82,NNE,22,0.0,0.0,80,0.00,,---,0.61,0.00,VWS V14.00,2013-08-06 03:58:00,
2013-08-05 23:00:00,71.0,64.5,29.82,NNE,22,0.0,0.0,80,0.00,,---,0.61,0.00,VWS V14.00,2013-08-06 04:00:00,
2013-08-05 23:01:00,70.0,63.2,29.82,NNE,22,0.0,0.0,79,0.00,,---,0.61,0.00,VWS V14.00,2013-08-06 04:01:00,
2013-08-05 23:05:00,70.0,63.5,29.82,NNE,22,0.0,0.0,80,0.00,,---,0.61,0.00,VWS V14.00,2013-08-06 04:05:00,
2013-08-05 23:06:00,70.0,63.5,29.82,NNE,22,0.0,0.0,80,0.00,,---,0.61,0.00,VWS V14.00,2013-08-06 04:06:00,
2013-08-05 23:10:00,70.0,63.2,29.82,NNE,22,0.0,0.0,79,0.00,,---,0.61,0.00,VWS V14.00,2013-08-06 04:10:00,
2013-08-05 23:11:00,70.0,63.2,29.82,NNE,22,0.0,0.0,79,0.00,,---,0.61,0.00,VWS V14.00,2013-08-06 04:11:00,
2013-08-05 23:15:00,70.0,63.2,29.82,NNE,22,0.0,0.0,79,0.00,,---,0.61,0.00,VWS V14.00,2013-08-06 04:15:00,
2013-08-05 23:16:00,70.0,63.5,29.82,NNE,22,0.0,0.0,80,0.00,,---,0.61,0.00,VWS V14.00,2013-08-06 04:16:00,
2013-08-05 23:20:00,70.0,63.5,29.82,NNE,22,0.0,0.0,80,0.00,,---,0.61,0.00,VWS V14.00,2013-08-06 04:20:00,
2013-08-05 23:25:00,70.0,63.5,29.82,NNE,22,0.0,0.0,80,0.00,,---,0.61,0.00,VWS V14.00,2013-08-06 04:25:00,
2013-08-05 23:30:00,69.0,62.9,29.82,NNE,22,0.0,0.0,81,0.00,,---,0.61,0.00,VWS V14.00,2013-08-06 04:30:00,
2013-08-05 23:35:00,69.0,62.9,29.82,NNE,22,0.0,0.0,81,0.00,,---,0.61,0.00,VWS V14.00,2013-08-06 04:35:00,
2013-08-05 23:40:00,69.0,63.3,29.81,NNE,22,0.0,0.0,82,0.00,,---,0.61,0.00,VWS V14.00,2013-08-06 04:40:00,
2013-08-05 23:45:00,69.0,63.3,29.81,NNE,22,0.0,0.0,82,0.00,,---,0.61,0.00,VWS V14.00,2013-08-06 04:45:00,
2013-08-05 23:50:00,69.0,62.9,29.82,NNE,22,0.0,0.0,81,0.00,,---,0.61,0.00,VWS V14.00,2013-08-06 04:50:00,
2013-08-05 23:55:00,69.0,62.9,29.82,NNE,22,0.0,0.0,81,0.00,,---,0.00,0.00,VWS V14.00,2013-08-06 04:55:00,